Location: The Jewett Observatory
(46.7288°N, 117.1525°W)
Time: 03:08:16
(UTC-07:00)

Meteor 1-28 Rocket - Visible Passes

Search period start: 29 September 2016 00:00
Search period end: 09 October 2016 00:00
Orbit: 506 x 527 km, 97.2° (Epoch: 28 September)

Date Brightness Start Highest point End Pass type
(mag) Time Alt. Az. Time Alt. Az. Time Alt. Az.
29 Sep 5.4 05:50:39 10° SE 05:53:59 30° ENE 05:57:19 10° N visible
29 Sep 5.8 20:27:33 10° NNW 20:30:28 22° WNW 20:33:23 10° WSW visible
30 Sep 6.0 05:36:37 10° ESE 05:39:33 22° ENE 05:42:29 10° NNE visible
30 Sep 5.2 20:12:44 10° N 20:16:02 31° WNW 20:19:20 10° SW visible
01 Oct 6.4 05:22:49 10° ESE 05:25:08 16° ENE 05:27:27 10° NNE visible
01 Oct 4.4 19:58:00 10° N 20:01:33 44° WNW 20:05:06 10° SW visible
02 Oct 6.7 05:09:29 10° E 05:10:45 11° ENE 05:12:01 10° NE visible
02 Oct 3.5 19:43:21 10° N 19:47:04 66° WNW 19:50:44 10° SSW visible
03 Oct 3.1 19:28:47 10° NNE 19:32:32 83° ESE 19:36:15 10° S visible
04 Oct 4.1 06:11:36 10° SSE 06:15:16 53° ENE 06:18:57 10° N visible
04 Oct 3.2 19:14:17 10° NNE 19:17:58 54° E 19:21:36 10° S visible
04 Oct 6.5 20:49:46 10° NNW 20:51:38 13° WNW 20:53:30 10° W visible
05 Oct 5.0 05:57:18 10° SE 06:00:47 36° ENE 06:04:15 10° N visible
05 Oct 3.7 18:59:53 10° NNE 19:03:22 36° E 19:06:49 10° SSE visible
05 Oct 6.0 20:34:36 10° NNW 20:37:14 18° WNW 20:39:51 10° WSW visible
06 Oct 5.7 05:43:10 10° SE 05:46:19 26° ENE 05:49:28 10° NNE visible
06 Oct 4.2 18:45:35 10° NE 18:48:44 25° E 18:51:51 10° SSE visible
06 Oct 5.5 20:19:40 10° NNW 20:22:47 26° WNW 20:25:54 10° SW visible
07 Oct 6.2 05:29:14 10° ESE 05:31:53 19° ENE 05:34:31 10° NNE visible
07 Oct 4.8 20:04:53 10° N 20:08:19 36° WNW 20:11:45 10° SW visible
08 Oct 6.5 05:15:35 10° E 05:17:28 13° ENE 05:19:21 10° NNE visible
08 Oct 3.9 19:50:11 10° N 19:53:50 53° WNW 19:57:27 10° SSW visible
